Clinton-Sherman, OK

5:31 PM CDT on April 23, 2018 (GMT -0500)
Clinton-Sherman

Weather History for KCSM - June, 2013

Change the Weather History Date:

Wednesday, June 26, 2013

  Actual Average Record
Temperature  
Mean Temperature 90 °F -  
Max Temperature 102 °F 88 °F 109 °F (2011)
Min Temperature 79 °F 66 °F 59 °F (2003)
Cooling Degree Days 26    
Growing Degree Days 40 (Base 50)    
Moisture  
Dew Point 63 °F    
Average Humidity 43    
Maximum Humidity 63    
Minimum Humidity 28    
Precipitation  
Precipitation 0.00 in - - ()
Sea Level Pressure  
Sea Level Pressure 29.78 in    
Wind  
Wind Speed 17 mph (South)    
Max Wind Speed 22 mph    
Max Gust Speed 31 mph    
Visibility 10 miles    
Events      
Averages and records for this station are not official NWS values.
T = Trace of Precipitation, MM = Missing Value Source: NWS Daily Summary

Daily Weather History Graph

Daily Weather History Graph

Search for Another Location

Airport or City:

Astronomy

Jun. 26, 2013 Rise Set
Actual Time 6:23 AM CDT 8:55 PM CDT
Civil Twilight 5:53 AM CDT 9:25 PM CDT
Nautical Twilight 5:16 AM CDT 10:02 PM CDT
Astronomical Twilight 4:35 AM CDT 10:43 PM CDT
Moon 11:29 PM CDT (6/26) 10:08 AM CDT (6/26)
Length of Visible Light 15h 31m
Length of Day
14h 31m
Waning Gibbous, 85% of the Moon is Illuminated
Jun 26
Waning Gibbous
Jun 29
Last Quarter
Jul 8
New
Jul 15
First Quarter
Jul 22
Full

Hourly Weather History & Observations

Time (CDT) Temp. Heat Index Dew Point Humidity Pressure Visibility Wind Dir Wind Speed Gust Speed Precip Events Conditions
12:53 AM 84.9 °F 84.8 °F 60.1 °F 43% 29.72 in 10.0 mi South 21.9 mph - N/A   Clear
1:53 AM 82.9 °F 83.2 °F 60.1 °F 46% 29.71 in 10.0 mi South 19.6 mph - N/A   Clear
2:53 AM 81.0 °F 81.6 °F 60.1 °F 49% 29.72 in 10.0 mi South 18.4 mph - N/A   Clear
3:53 AM 80.1 °F 80.9 °F 60.1 °F 50% 29.72 in 10.0 mi South 16.1 mph - N/A   Clear
4:53 AM 79.0 °F - 61.0 °F 54% 29.73 in 10.0 mi South 17.3 mph - N/A   Clear
5:53 AM 79.0 °F - 62.1 °F 56% 29.73 in 10.0 mi SSW 20.7 mph - N/A   Clear
6:53 AM 79.0 °F - 63.0 °F 58% 29.75 in 10.0 mi SSW 17.3 mph - N/A   Clear
7:53 AM 81.0 °F 82.2 °F 63.0 °F 54% 29.76 in 10.0 mi South 17.3 mph - N/A   Clear
8:53 AM 86.0 °F 87.3 °F 64.0 °F 48% 29.79 in 10.0 mi South 12.7 mph - N/A   Clear
9:53 AM 90.0 °F 91.3 °F 64.0 °F 42% 29.80 in 10.0 mi South 15.0 mph - N/A   Clear
10:53 AM 91.9 °F 93.3 °F 64.0 °F 39% 29.81 in 10.0 mi South 13.8 mph 20.7 mph N/A   Clear
11:53 AM 93.9 °F 95.6 °F 64.0 °F 37% 29.82 in 10.0 mi SSW 12.7 mph 20.7 mph N/A   Clear
12:53 PM 98.1 °F 99.6 °F 63.0 °F 31% 29.81 in 10.0 mi South 9.2 mph 20.7 mph N/A   Clear
1:53 PM 99.0 °F 100.5 °F 62.1 °F 30% 29.81 in 10.0 mi SSE 15.0 mph 24.2 mph N/A   Clear
2:53 PM 102.0 °F 104.6 °F 63.0 °F 28% 29.78 in 10.0 mi South 19.6 mph 26.5 mph N/A   Clear
3:53 PM 102.0 °F 104.6 °F 63.0 °F 28% 29.78 in 10.0 mi SSE 15.0 mph 23.0 mph N/A   Clear
4:53 PM 102.0 °F 105.2 °F 64.0 °F 29% 29.78 in 10.0 mi SSE 16.1 mph 25.3 mph N/A   Clear
5:53 PM 102.0 °F 105.9 °F 64.9 °F 30% 29.78 in 10.0 mi SSE 20.7 mph 31.1 mph N/A   Clear
6:53 PM 99.0 °F 102.9 °F 66.0 °F 34% 29.79 in 10.0 mi SSE 20.7 mph 27.6 mph N/A   Clear
7:53 PM 96.1 °F 99.3 °F 66.0 °F 37% 29.79 in 10.0 mi SE 19.6 mph - N/A   Clear
8:53 PM 93.0 °F 95.0 °F 64.9 °F 39% 29.80 in 10.0 mi SE 13.8 mph - N/A   Clear
9:53 PM 89.1 °F 90.3 °F 64.0 °F 43% 29.83 in 10.0 mi ESE 8.1 mph - N/A   Clear
10:53 PM 84.9 °F 88.2 °F 68.0 °F 57% 29.86 in 10.0 mi SE 11.5 mph - N/A   Clear
11:53 PM 82.9 °F 86.5 °F 69.1 °F 63% 29.87 in 10.0 mi SE 11.5 mph - N/A   Clear